Regional Weather Roundup
Issued by NWS

Home | Current Version | Previous Version | Text Only | Print | Product List | Glossary Off
Versions: 1 2 3 4 5 6 7 8 9 10 11 12 13 14 15 16 17 18 19 20 21 22 23 24 25 26 27 28 29 30 31 32 33 34 35 36 37 38 39 40 41 42 43 44 45 46 47 48 49 50

000
ASUS43 KFSD 231802
RWRSD

WEATHER ROUNDUP FOR SOUTH DAKOTA
NATIONAL WEATHER SERVICE SIOUX FALLS SD
100 PM CDT SAT MAY 23 2015

NOTE: "FAIR" INDICATES FEW OR NO CLOUDS BELOW 12,000 FEET WITH NO
SIGNIFICANT WEATHER AND/OR OBSTRUCTIONS TO VISIBILITY.


SDZ001>005-009-010-012>017-231900-
NORTHWEST AND NORTH CENTRAL SOUTH DAKOTA

CITY           SKY/WX    TMP DP  RH WIND       PRES   REMARKS
FAITH            N/A     56  45  66 E10       30.10R
MOBRIDGE       CLOUDY    60  49  66 SE10      30.11S
$$

SDZ012>016-024>037-041>051-057-063-072>074-231900-
SOUTHWEST AND SOUTH CENTRAL SOUTH DAKOTA

CITY           SKY/WX    TMP DP  RH WIND       PRES   REMARKS
RAPID CTY ARPT CLOUDY    54  46  74 S9        30.07S
PIERRE         CLOUDY    54  51  90 SE13      30.11S FOG
CUSTER         CLOUDY    48  42  80 S9        30.07F
ELLSWORTH AFB  CLOUDY    54  47  76 S14       30.06
PHILIP         CLOUDY    55  50  83 E10       30.09S
PINE RIDGE     CLOUDY    56  48  74 SE10      30.05F
WINNER         LGT RAIN  56  53  90 SE12      30.11F
$$

SDZ004>011-016>023-039-040-231900-
NORTHEAST SOUTH DAKOTA

CITY           SKY/WX    TMP DP  RH WIND       PRES   REMARKS
ABERDEEN       CLOUDY    64  46  52 S12       30.16F
WATERTOWN      CLOUDY    64  45  49 SE10G21   30.17F
BROOKINGS      CLOUDY    63  46  55 SE15      30.18F
$$

SDZ017-020-022-023-036>040-048>070-231900-
SOUTHEAST SOUTH DAKOTA

CITY           SKY/WX    TMP DP  RH WIND       PRES   REMARKS
SIOUX FALLS    CLOUDY    63  49  60 SE14G24   30.17S
HURON          CLOUDY    64  49  57 S16G22    30.14S
CHAMBERLAIN    CLOUDY    56  53  91 SE6       30.13S
MITCHELL       CLOUDY    66  51  58 SE17      30.15S
YANKTON        CLOUDY    61  52  72 SE12      30.15F
$$

ABBREVIATIONS USED IN REMARKS
   TC - TEMPERATURE IN CELSIUS
  WCI - WIND CHILL INDEX
   HX - HEAT INDEX
  VSB - VISIBILITY



USA.gov is the U.S. government's official web portal to all federal, state and local government web resources and services.